SL-12 R/B(AUX MOTOR), 15338

Orbit data source: Space-Track

SL-12 R/B(AUX MOTOR), 15338 is space debris in LEO originally from a launch on Fri, 28 Sep 1984 UTC launched from the Tyuratam Missile And Space Complex (TTMTR). Debris objects in space refer to the collection of defunct objects orbiting the Earth. Examples of debris include non-operational satellites, rocket bodies, and fragments generated from explosions, collisions, or faulty payload assembly.

Loading next visibility...
Identifier
15338, 1984-106F
Orbit
LEO
Country
Flag of CISCIS
Related business
Manufacturer
NPO Energiya
Mission
Spacecraft
Bus & Motor
SOZ, Unknown motor
Mass
110 kg wet, 56 kg dry
Launch date (UTC)
1984-09-28 (42 years ago)
Launch vehicle
Unknown
Launch site
Tyuratam Missile And Space Complex (TTMTR)
Object type
Payload
Rocket body
Debris
Shape & HBR
Unknown
Radar Cross Section
Large (>1 m²)

Expand to show TLE details & history
Last TLE update: 2 days ago

TLE from 2 days ago
0 SL-12 R/B(AUX MOTOR)
1 15338U 84106F   26171.39998027  .00000066  00000-0  71427-4 0  9990
2 15338  66.5712 259.0055 0019183 298.1938  61.7216 14.19308476158681
Epoch: 2026-06-20T09:35Z
TLE epoch observation values (Epoch: 2026-06-20T09:35:58.295Z)
Latitude
Longitude
-153.60255°
Altitude
823.25 km
Speed
7.445 km/s
True Right ascension
17h 16m 01s
True Declination
0° 00' 00"
Sunlit
Object was in full shadow at epoch
Visualization orbit readout
Latitude
Unknown
Longitude
Unknown
Altitude
Unknown
Speed
Unknown
Apparent Right ascension
Unknown
Apparent Declination
Unknown
Sunlit
N/A
Visualization observer readout
Local Sidereal Time
23:21:12
Azimuth
Unknown
Elevation
Unknown
Doppler factor
Unknown
Orbital elements
Apogee altitude
839.91 km
Perigee altitude
812.271 km
Semi-major axis
7,204.228 km
Eccentricity
0.00192
Inclination
66.5712°
RAAN
259.0055°
Arg. of periapsis
298.1938°
True anomaly
61.91541°
Mean anomaly
61.7216°
Eccentric anomaly
61.81848°
Mean motion
3.54946 °/min
Orbital period
101.42 mins
BSTAR
0.000071427
Loading maneuver chart data...
Computing Atmospheric mass density...
Loading historical data...
Loading historical data...
Loading historical data...
Loading historical data...
Loading historical data...
Loading historical data...
Loading historical data...

Documentation

Showing up to 5 results
|